DW3167 Weather Reports


Display with metric or nautical units.
time (UTC)temp
F
wind
direction
speed
MPH
gust
MPH
rain 1hr
in
rain 24hr
in
rain mn
in
humidity
%
barometer
mb
20260510005521 62 142 0.0 0.0 0.00 0.00 0.00 61 1007.8
20260510005057 63 142 0.0 0.0 0.00 0.00 0.00 58 1007.7
20260510004517 63 142 0.0 0.0 0.00 0.00 0.00 57 1007.6
20260510004043 64 142 0.0 0.0 0.00 0.00 0.00 58 1007.5
20260510003559 64 142 0.0 0.0 0.00 0.00 0.00 57 1007.4
20260510003504 64 142 0.0 0.0 0.00 0.00 0.00 57 1007.4
20260510003037 64 142 0.0 0.0 0.00 0.00 0.00 56 1007.3
20260510002553 65 142 0.0 1.0 0.00 0.00 0.00 55 1007.2
20260510002035 66 140 0.0 1.0 0.00 0.00 0.00 55 1007.1
20260510001506 67 137 0.0 1.0 0.00 0.00 0.00 54 1007.0
20260510001037 67 145 0.0 1.0 0.00 0.00 0.00 52 1006.9
20260510000513 68 132 0.0 1.0 0.00 0.00 0.00 51 1006.9
20260510000048 68 127 0.0 1.0 0.00 0.00 0.00 51 1006.9
20260509235525 69 127 0.0 1.0 0.00 0.00 0.00 53 1006.9
20260509235059 70 127 0.0 1.0 0.00 0.00 0.00 55 1006.8
20260509235001 70 127 0.0 1.0 0.00 0.00 0.00 55 1006.8
20260509234520 70 126 0.0 1.0 0.00 0.00 0.00 54 1006.9
20260509234044 70 79 0.0 2.0 0.00 0.00 0.00 53 1006.9
20260509233507 70 79 0.0 2.0 0.00 0.00 0.00 50 1006.8
20260509233039 70 175 1.0 2.0 0.00 0.00 0.00 50 1006.9
20260509232555 71 109 1.0 2.0 0.00 0.00 0.00 50 1006.9
20260509232015 71 229 0.0 3.0 0.00 0.00 0.00 53 1006.8
20260509231539 71 250 0.0 3.0 0.00 0.00 0.00 52 1006.8
20260509231017 71 49 0.0 3.0 0.00 0.00 0.00 49 1006.7
20260509230553 71 5 0.0 4.0 0.00 0.00 0.00 49 1006.6
20260509230035 71 93 1.0 4.0 0.00 0.00 0.00 49 1006.5
20260509225523 71 331 0.0 3.0 0.00 0.00 0.00 51 1006.5
20260509225059 71 55 1.0 3.0 0.00 0.00 0.00 48 1006.6
20260509224544 71 15 0.0 2.0 0.00 0.00 0.00 51 1006.6
20260509224030 71 50 0.0 2.0 0.00 0.00 0.00 49 1006.7
20260509223519 72 74 0.0 4.0 0.00 0.00 0.00 48 1006.7
20260509223057 72 73 1.0 4.0 0.00 0.00 0.00 47 1006.7
20260509223006 72 80 1.0 4.0 0.00 0.00 0.00 47 1006.7
20260509222542 72 317 1.0 3.0 0.00 0.00 0.00 50 1006.7
20260509222011 72 313 0.0 3.0 0.00 0.00 0.00 46 1006.6
20260509221538 71 333 1.0 3.0 0.00 0.00 0.00 47 1006.7
20260509221019 71 36 1.0 3.0 0.00 0.00 0.00 45 1006.7
20260509220600 71 52 0.0 3.0 0.00 0.00 0.00 46 1006.6
20260509220505 71 126 0.0 2.0 0.00 0.00 0.00 45 1006.6
20260509220036 71 231 0.0 2.0 0.00 0.00 0.00 49 1006.6
20260509215558 71 302 1.0 3.0 0.00 0.00 0.00 43 1006.5
20260509215043 72 334 0.0 2.0 0.00 0.00 0.00 45 1006.6
20260509214557 72 360 0.0 1.0 0.00 0.00 0.00 46 1006.6
20260509214020 72 5 0.0 2.0 0.00 0.00 0.00 45 1006.5
20260509213558 72 300 0.0 3.0 0.00 0.00 0.00 45 1006.4
20260509213025 72 77 0.0 3.0 0.00 0.00 0.00 44 1006.4
20260509212504 71 13 0.0 2.0 0.00 0.00 0.00 46 1006.3
20260509212028 71 34 0.0 2.0 0.00 0.00 0.00 43 1006.2
20260509211611 71 345 0.0 3.0 0.00 0.00 0.00 45 1006.2
20260509211032 71 286 0.0 3.0 0.00 0.00 0.00 45 1006.2
20260509210549 71 49 0.0 4.0 0.00 0.00 0.00 47 1006.2
20260509210015 71 76 0.0 4.0 0.00 0.00 0.00 47 1006.1
20260509205551 71 346 0.0 2.0 0.00 0.00 0.00 47 1006.1
20260509205016 71 44 0.0 2.0 0.00 0.00 0.00 48 1006.1
20260509204600 72 5 0.0 3.0 0.00 0.00 0.00 48 1006.1
20260509204011 72 55 0.0 3.0 0.00 0.00 0.00 45 1006.1
20260509203532 72 78 0.0 3.0 0.00 0.00 0.00 45 1006.1
20260509203024 73 329 0.0 3.0 0.00 0.00 0.00 45 1006.1
20260509202535 74 64 0.0 3.0 0.00 0.00 0.00 45 1006.0
20260509202051 74 72 1.0 6.0 0.00 0.00 0.00 43 1006.0
20260509201533 75 91 1.0 6.0 0.00 0.00 0.00 41 1006.0
20260509201048 75 324 1.0 8.0 0.00 0.00 0.00 42 1005.9
20260509200530 75 157 0.0 8.0 0.00 0.00 0.00 44 1006.0
20260509200049 74 51 2.0 7.0 0.00 0.00 0.00 41 1006.0
20260509195530 74 283 2.0 7.0 0.00 0.00 0.00 41 1006.1
20260509195046 74 65 1.0 4.0 0.00 0.00 0.00 45 1006.1
20260509194505 73 295 1.0 4.0 0.00 0.00 0.00 42 1006.2
20260509194039 73 53 1.0 4.0 0.00 0.00 0.00 42 1006.2
20260509193510 73 344 1.0 4.0 0.00 0.00 0.00 41 1006.3
20260509193048 73 312 2.0 4.0 0.00 0.00 0.00 43 1006.4
20260509192532 73 62 0.0 5.0 0.00 0.00 0.00 46 1006.5
20260509192008 73 83 0.0 5.0 0.00 0.00 0.00 43 1006.6
20260509191548 73 69 1.0 4.0 0.00 0.00 0.00 43 1006.6
20260509191035 73 38 1.0 9.0 0.00 0.00 0.00 42 1006.7
20260509190600 73 82 1.0 9.0 0.00 0.00 0.00 44 1006.8
20260509190502 73 307 3.0 9.0 0.00 0.00 0.00 43 1006.8
20260509190025 73 26 1.0 7.0 0.00 0.00 0.00 47 1006.7
20260509185502 72 293 0.0 7.0 0.00 0.00 0.00 48 1006.7
20260509185024 72 63 1.0 5.0 0.00 0.00 0.00 46 1006.8
20260509184552 71 334 2.0 5.0 0.00 0.00 0.00 49 1006.8
20260509184037 71 360 1.0 5.0 0.00 0.00 0.00 45 1006.9
20260509183558 72 309 1.0 5.0 0.00 0.00 0.00 45 1006.9
20260509183022 71 302 1.0 5.0 0.00 0.00 0.00 47 1006.9
20260509182537 71 261 2.0 5.0 0.00 0.00 0.00 47 1007.0
20260509182054 71 17 2.0 6.0 0.00 0.00 0.00 48 1007.2
20260509181534 71 110 2.0 6.0 0.00 0.00 0.00 47 1007.3
20260509181052 70 5 2.0 6.0 0.00 0.00 0.00 51 1007.3
20260509180532 69 5 1.0 6.0 0.00 0.00 0.00 54 1007.5
20260509180008 69 105 1.0 4.0 0.00 0.00 0.00 51 1007.6
20260509175542 69 69 1.0 4.0 0.00 0.00 0.00 52 1007.6
20260509175022 68 58 1.0 4.0 0.00 0.00 0.00 54 1007.8
20260509174556 68 61 1.0 5.0 0.00 0.00 0.00 53 1008.0
20260509174038 67 346 0.0 5.0 0.00 0.00 0.00 54 1008.0
20260509173514 67 355 1.0 3.0 0.00 0.00 0.00 56 1007.9
20260509173052 67 343 0.0 4.0 0.00 0.00 0.00 56 1007.9
20260509172534 67 300 1.0 4.0 0.00 0.00 0.00 53 1008.0
20260509172006 67 44 0.0 2.0 0.00 0.00 0.00 54 1007.9
20260509171541 67 86 0.0 1.0 0.00 0.00 0.00 56 1008.0
20260509171020 67 16 0.0 2.0 0.00 0.00 0.00 55 1008.2
20260509170556 67 230 0.0 2.0 0.00 0.00 0.00 53 1008.3
20260509170036 67 251 0.0 2.0 0.00 0.00 0.00 55 1008.4
20260509165514 67 239 0.0 2.0 0.00 0.00 0.00 55 1008.5
20260509165048 67 300 0.0 3.0 0.00 0.00 0.00 55 1008.6
20260509164531 67 292 0.0 3.0 0.00 0.00 0.00 54 1008.6
20260509164008 67 158 0.0 4.0 0.00 0.00 0.00 52 1008.5
20260509163544 67 222 0.0 4.0 0.00 0.00 0.00 53 1008.5
20260509163024 67 360 0.0 3.0 0.00 0.00 0.00 55 1008.5
20260509162558 67 155 1.0 3.0 0.00 0.00 0.00 54 1008.3
20260509162038 67 319 1.0 3.0 0.00 0.00 0.00 54 1008.3
20260509161518 67 321 1.0 3.0 0.00 0.00 0.00 56 1008.4
20260509161053 67 323 1.0 3.0 0.00 0.00 0.00 56 1008.4
20260509160524 67 51 0.0 3.0 0.00 0.00 0.00 55 1008.3
20260509160004 66 328 1.0 3.0 0.00 0.00 0.00 55 1008.2
20260509155527 66 76 0.0 2.0 0.00 0.00 0.00 55 1008.3
20260509155009 66 76 0.0 2.0 0.00 0.00 0.00 55 1008.3
20260509154552 66 86 0.0 3.0 0.00 0.00 0.00 54 1008.4
20260509154039 66 97 0.0 3.0 0.00 0.00 0.00 52 1008.3
20260509153509 66 274 0.0 3.0 0.00 0.00 0.00 53 1008.4
20260509153051 66 127 0.0 3.0 0.00 0.00 0.00 53 1008.3
20260509152534 66 82 0.0 4.0 0.00 0.00 0.00 55 1008.3
20260509152058 66 241 0.0 3.0 0.00 0.00 0.00 53 1008.3
20260509152004 66 78 0.0 3.0 0.00 0.00 0.00 53 1008.3
20260509151538 66 124 0.0 3.0 0.00 0.00 0.00 56 1008.2
20260509151026 66 272 0.0 5.0 0.00 0.00 0.00 53 1008.2
20260509150547 65 273 1.0 5.0 0.00 0.00 0.00 54 1008.3
20260509150032 65 117 0.0 2.0 0.00 0.00 0.00 55 1008.4
20260509145550 65 319 0.0 3.0 0.00 0.00 0.00 55 1008.5
20260509145031 65 96 0.0 3.0 0.00 0.00 0.00 57 1008.4
20260509144511 64 259 0.0 3.0 0.00 0.00 0.00 60 1008.5
20260509144052 64 41 0.0 3.0 0.00 0.00 0.00 58 1008.4
20260509143527 63 173 1.0 4.0 0.00 0.00 0.00 57 1008.4
20260509143009 63 220 1.0 4.0 0.00 0.00 0.00 58 1008.3
20260509142536 63 69 1.0 4.0 0.00 0.00 0.00 61 1008.5
20260509142018 62 94 1.0 4.0 0.00 0.00 0.00 61 1008.6
20260509141555 61 275 0.0 5.0 0.00 0.00 0.00 60 1008.7
20260509141040 61 71 1.0 4.0 0.00 0.00 0.00 62 1008.9
20260509140518 61 112 0.0 4.0 0.00 0.00 0.00 63 1009.1
20260509140112 61 312 0.0 6.0 0.00 0.00 0.00 61 1009.1
20260509140006 61 245 0.0 6.0 0.00 0.00 0.00 61 1009.1
20260509135543 60 61 1.0 6.0 0.00 0.00 0.00 61 1009.2
20260509135026 60 166 0.0 5.0 0.00 0.00 0.00 63 1009.2
20260509134508 60 277 1.0 5.0 0.00 0.00 0.00 60 1009.3
20260509134050 60 45 0.0 3.0 0.00 0.00 0.00 61 1009.6
20260509133522 60 333 1.0 3.0 0.00 0.00 0.00 62 1009.6
20260509133005 59 355 1.0 4.0 0.00 0.00 0.00 61 1009.6
20260509132545 59 296 1.0 4.0 0.00 0.00 0.00 60 1009.6
20260509132006 59 100 1.0 4.0 0.00 0.00 0.00 61 1009.7
20260509131545 59 5 0.0 3.0 0.00 0.00 0.00 61 1009.6
20260509131029 59 79 1.0 4.0 0.00 0.00 0.00 60 1009.5
20260509130550 59 326 1.0 4.0 0.00 0.00 0.00 62 1009.4
20260509130029 59 312 1.0 4.0 0.00 0.00 0.00 61 1009.3
20260509125507 58 322 1.0 4.0 0.00 0.00 0.00 61 1009.4
20260509125030 58 360 0.0 2.0 0.00 0.00 0.00 62 1009.3
20260509124510 58 42 0.0 3.0 0.00 0.00 0.00 61 1009.3
20260509124049 58 329 1.0 3.0 0.00 0.00 0.00 62 1009.3
20260509123511 58 67 0.0 2.0 0.00 0.00 0.00 63 1009.3
20260509123047 57 298 0.0 2.0 0.00 0.00 0.00 62 1009.4
20260509122529 57 17 0.0 2.0 0.00 0.00 0.00 62 1009.4
20260509122047 57 33 0.0 4.0 0.00 0.00 0.00 62 1009.4
20260509121528 57 351 0.0 4.0 0.00 0.00 0.00 61 1009.6
20260509121007 57 329 0.0 2.0 0.00 0.00 0.00 61 1009.6
20260509120544 57 314 0.0 3.0 0.00 0.00 0.00 61 1009.6
20260509120025 56 77 0.0 3.0 0.00 0.00 0.00 62 1009.5
20260509115502 56 324 0.0 2.0 0.00 0.00 0.00 62 1009.6
20260509115038 56 348 0.0 1.0 0.00 0.00 0.00 61 1009.6
20260509114520 56 5 0.0 1.0 0.00 0.00 0.00 61 1009.6
20260509114057 56 15 0.0 0.0 0.00 0.00 0.00 62 1009.6
20260509113540 56 38 0.0 0.0 0.00 0.00 0.00 62 1009.5
20260509113016 56 24 0.0 0.0 0.00 0.00 0.00 64 1009.5
20260509112552 56 18 0.0 0.0 0.00 0.00 0.00 63 1009.6
20260509112034 56 18 0.0 0.0 0.00 0.00 0.00 60 1009.6
20260509111517 56 92 0.0 0.0 0.00 0.00 0.00 62 1009.6
20260509111052 55 92 0.0 0.0 0.00 0.00 0.00 61 1009.5
20260509110530 55 72 0.0 2.0 0.00 0.00 0.00 64 1009.5
20260509110012 55 55 0.0 2.0 0.00 0.00 0.00 61 1009.5
20260509105550 55 59 0.0 2.0 0.00 0.00 0.00 61 1009.5
20260509105030 55 59 0.0 2.0 0.00 0.00 0.00 59 1009.6
20260509104512 55 44 0.0 0.0 0.00 0.00 0.00 58 1009.5
20260509104050 55 54 0.0 0.0 0.00 0.00 0.00 59 1009.6
20260509103528 55 54 0.0 0.0 0.00 0.00 0.00 62 1009.6
20260509103015 55 31 0.0 0.0 0.00 0.00 0.00 59 1009.6
20260509102546 55 31 0.0 0.0 0.00 0.00 0.00 59 1009.6
20260509102028 54 31 0.0 0.0 0.00 0.00 0.00 59 1009.6
20260509101513 54 31 0.0 0.0 0.00 0.00 0.00 61 1009.6
20260509101052 54 117 0.0 0.0 0.00 0.00 0.00 63 1009.7
20260509101001 54 117 0.0 0.0 0.00 0.00 0.00 63 1009.7
20260509100536 54 118 0.0 0.0 0.00 0.00 0.00 63 1009.7
20260509100022 54 58 0.0 0.0 0.00 0.00 0.00 61 1009.7
20260509095558 54 58 0.0 0.0 0.00 0.00 0.00 62 1009.8
20260509095037 54 23 0.0 1.0 0.00 0.00 0.00 62 1009.8
20260509094515 54 61 0.0 1.0 0.00 0.00 0.00 62 1009.7
20260509094042 54 5 0.0 1.0 0.00 0.00 0.00 62 1009.7
20260509093519 54 5 0.0 1.0 0.00 0.00 0.00 61 1009.8
20260509093046 54 5 0.0 1.0 0.00 0.00 0.00 60 1009.8
20260509092528 54 5 0.0 1.0 0.00 0.00 0.00 60 1009.9
20260509092046 54 5 0.0 1.0 0.00 0.00 0.00 60 1010.0
20260509091521 54 5 0.0 1.0 0.00 0.00 0.00 59 1010.1
20260509091048 54 5 0.0 2.0 0.00 0.00 0.00 59 1010.0
20260509090509 55 5 0.0 1.0 0.00 0.00 0.00 58 1010.0
20260509090027 55 341 0.0 1.0 0.00 0.00 0.00 59 1010.0
20260509085505 55 282 0.0 1.0 0.00 0.00 0.00 59 1010.0
20260509085030 55 287 0.0 1.0 0.00 0.00 0.00 57 1010.1
20260509084549 55 291 0.0 1.0 0.00 0.00 0.00 59 1010.1
20260509084031 56 310 0.0 1.0 0.00 0.00 0.00 57 1010.2
20260509083545 56 311 0.0 2.0 0.00 0.00 0.00 53 1010.2
20260509083006 56 292 0.0 2.0 0.00 0.00 0.00 54 1010.2
20260509082538 56 35 0.0 1.0 0.00 0.00 0.00 55 1010.3
20260509082020 56 35 0.0 1.0 0.00 0.00 0.00 55 1010.3
20260509081559 56 35 0.0 1.0 0.00 0.00 0.00 56 1010.4
20260509081018 56 35 0.0 1.0 0.00 0.00 0.00 53 1010.3
20260509080537 56 92 0.0 2.0 0.00 0.00 0.00 54 1010.3
20260509080021 56 292 0.0 2.0 0.00 0.00 0.00 52 1010.3
20260509075532 57 13 0.0 2.0 0.00 0.00 0.00 52 1010.4
20260509075017 56 13 0.0 3.0 0.00 0.00 0.00 51 1010.4
20260509074550 56 103 1.0 3.0 0.00 0.00 0.00 51 1010.5
20260509074025 56 313 0.0 3.0 0.00 0.00 0.00 52 1010.5
20260509073512 56 345 0.0 3.0 0.00 0.00 0.00 53 1010.6
20260509073137 56 340 0.0 3.0 0.00 0.00 0.00 53 1010.6
20260509072508 56 60 0.0 2.0 0.00 0.00 0.00 53 1010.7
20260509072030 56 355 0.0 2.0 0.00 0.00 0.00 52 1010.8
20260509071558 56 344 0.0 2.0 0.00 0.00 0.00 52 1010.7
20260509071504 56 344 0.0 2.0 0.00 0.00 0.00 52 1010.7
20260509071044 56 10 0.0 2.0 0.00 0.00 0.00 53 1010.7
20260509070511 56 10 0.0 2.0 0.00 0.00 0.00 53 1010.7
20260509070044 56 241 0.0 2.0 0.00 0.00 0.00 52 1010.7
20260509065559 56 340 0.0 4.0 0.00 0.00 0.00 52 1010.8
20260509065505 56 271 0.0 4.0 0.00 0.00 0.00 53 1010.8
20260509065018 56 254 0.0 3.0 0.00 0.00 0.00 52 1010.8
20260509064546 56 99 0.0 3.0 0.00 0.00 0.00 54 1010.8
20260509064014 56 71 0.0 3.0 0.00 0.00 0.00 53 1010.8
20260509063537 55 344 0.0 3.0 0.00 0.00 0.00 56 1010.9
20260509063021 55 36 0.0 2.0 0.00 0.00 0.00 55 1010.9
20260509062540 55 101 0.0 2.0 0.00 0.00 0.00 55 1011.0
20260509062056 55 42 0.0 1.0 0.00 0.00 0.00 58 1011.1
20260509061519 55 42 0.0 1.0 0.00 0.00 0.00 57 1011.1
20260509061052 54 86 0.0 3.0 0.00 0.00 0.00 56 1011.1
20260509060513 54 62 0.0 3.0 0.00 0.00 0.00 58 1011.2
20260509060050 53 95 0.0 0.0 0.00 0.00 0.00 60 1011.3
20260509055512 53 113 0.0 0.0 0.00 0.00 0.00 62 1011.4
20260509055034 53 107 0.0 0.0 0.00 0.00 0.00 62 1011.4
20260509054559 53 103 0.0 0.0 0.00 0.00 0.00 61 1011.5
20260509054022 53 31 0.0 0.0 0.00 0.00 0.00 63 1011.5
20260509053552 53 355 0.0 0.0 0.00 0.00 0.00 61 1011.6
20260509053036 53 139 0.0 0.0 0.00 0.00 0.00 61 1011.5
20260509052554 53 134 0.0 0.0 0.00 0.00 0.00 61 1011.5
20260509052035 53 139 0.0 0.0 0.00 0.00 0.00 61 1011.5
20260509051558 54 136 0.0 1.0 0.00 0.00 0.00 60 1011.6
20260509051033 54 119 0.0 1.0 0.00 0.00 0.00 60 1011.7
20260509050553 54 119 0.0 1.0 0.00 0.00 0.00 59 1011.7
20260509050025 54 22 0.0 0.0 0.00 0.00 0.00 60 1011.7
20260509045551 54 79 0.0 0.0 0.00 0.00 0.00 58 1011.8
20260509045015 54 99 0.0 0.0 0.00 0.00 0.00 58 1011.6
20260509044550 54 98 0.0 1.0 0.00 0.00 0.00 59 1011.5
20260509044010 54 98 0.0 1.0 0.00 0.00 0.00 59 1011.5
20260509043533 54 176 0.0 2.0 0.00 0.00 0.00 59 1011.4
20260509043022 55 178 0.0 3.0 0.00 0.00 0.00 56 1011.5
20260509042531 55 96 0.0 0.0 0.00 0.00 0.00 58 1011.4
20260509042012 55 78 0.0 0.0 0.00 0.00 0.00 58 1011.4
20260509041531 55 57 0.0 0.0 0.00 0.00 0.00 57 1011.4
20260509041047 55 57 0.0 0.0 0.00 0.00 0.00 55 1011.3
20260509040525 55 150 0.0 1.0 0.00 0.00 0.00 55 1011.4
20260509035521 56 64 0.0 0.0 0.00 0.00 0.00 56 1011.4
20260509035048 56 58 0.0 0.0 0.00 0.00 0.00 56 1011.4
20260509034524 56 41 0.0 0.0 0.00 0.00 0.00 55 1011.4
20260509034055 56 42 0.0 0.0 0.00 0.00 0.00 55 1011.4
20260509033535 56 94 0.0 1.0 0.00 0.00 0.00 55 1011.4
20260509033054 55 115 0.0 2.0 0.00 0.00 0.00 56 1011.4
20260509032536 55 26 0.0 2.0 0.00 0.00 0.00 55 1011.4
20260509032052 55 30 0.0 1.0 0.00 0.00 0.00 56 1011.4
20260509031520 55 355 0.0 1.0 0.00 0.00 0.00 58 1011.3
20260509031053 55 355 0.0 2.0 0.00 0.00 0.00 58 1011.4
20260509030518 55 325 0.0 2.0 0.00 0.00 0.00 55 1011.5
20260509030050 56 157 0.0 0.0 0.00 0.00 0.00 57 1011.4
20260509025513 56 157 0.0 0.0 0.00 0.00 0.00 57 1011.5
20260509025049 56 157 0.0 0.0 0.00 0.00 0.00 56 1011.6
20260509024507 57 76 0.0 0.0 0.00 0.00 0.00 57 1011.6
20260509024027 57 69 0.0 0.0 0.00 0.00 0.00 56 1011.7
20260509023503 57 65 0.0 0.0 0.00 0.00 0.00 54 1011.7
20260509023027 58 91 0.0 1.0 0.00 0.00 0.00 54 1011.7
20260509022559 58 22 0.0 1.0 0.00 0.00 0.00 54 1011.7
20260509022501 58 22 0.0 2.0 0.00 0.00 0.00 54 1011.8
20260509022024 58 322 0.0 2.0 0.00 0.00 0.00 53 1011.8
20260509021549 58 322 0.0 3.0 0.00 0.00 0.00 50 1011.7
20260509021033 59 32 0.0 3.0 0.00 0.00 0.00 51 1011.6
20260509020547 59 327 0.0 2.0 0.00 0.00 0.00 52 1011.5
20260509020027 59 22 0.0 3.0 0.00 0.00 0.00 51 1011.3
20260509015559 59 42 0.0 2.0 0.00 0.00 0.00 49 1011.4
20260509015509 59 26 0.0 2.0 0.00 0.00 0.00 50 1011.4
20260509015045 59 62 0.0 2.0 0.00 0.00 0.00 50 1011.3
20260509014535 59 13 0.0 2.0 0.00 0.00 0.00 50 1011.3
20260509014015 59 26 0.0 2.0 0.00 0.00 0.00 51 1011.3
20260509013555 59 25 0.0 1.0 0.00 0.00 0.00 49 1011.2
20260509013511 60 25 0.0 1.0 0.00 0.00 0.00 49 1011.2
20260509013052 60 54 0.0 3.0 0.00 0.00 0.00 49 1011.2
20260509012529 60 22 0.0 3.0 0.00 0.00 0.00 50 1011.1
20260509012051 60 305 0.0 4.0 0.00 0.00 0.00 51 1011.1
20260509011535 60 31 0.0 3.0 0.00 0.00 0.00 50 1011.0
20260509011025 60 328 0.0 3.0 0.00 0.00 0.00 52 1011.1
20260509010549 60 5 1.0 2.0 0.00 0.00 0.00 49 1011.1
20260509010034 60 355 0.0 2.0 0.00 0.00 0.00 50 1011.0